This is the latest recevied weather packets stored in our database for station/object M0TUM-1. If no packets are shown the sender has not sent any weather packets the latest 1 day(s).
| Time | Temp. | Humidity | Pressure | Rain* | Wind** | Luminosity | Snow |
|---|---|---|---|---|---|---|---|
| 1778025575 | 8.89° C | 82% | 1013 hPa | 0 mm | 1.34 m/s, 280° | 0 W/m² | - |
| 1778025273 | 8.89° C | 83% | 1013.1 hPa | 0 mm | 0.45 m/s, 335° | 0 W/m² | - |
| 1778024970 | 8.89° C | 83% | 1012.9 hPa | 0 mm | 1.34 m/s, 20° | 0 W/m² | - |
| 1778024667 | 8.89° C | 83% | 1012.8 hPa | 0 mm | 0.45 m/s, 288° | 0 W/m² | - |
| 1778024364 | 8.89° C | 83% | 1013.2 hPa | 0 mm | 0 m/s | 0 W/m² | - |
| 1778024061 | 8.89° C | 83% | 1013 hPa | 0 mm | 0.89 m/s, 344° | 0 W/m² | - |
| 1778023759 | 8.89° C | 82% | 1013.2 hPa | 0 mm | 0.45 m/s, 7° | 0 W/m² | - |
| 1778023456 | 8.89° C | 82% | 1013.1 hPa | 0 mm | 0.45 m/s, 34° | 0 W/m² | - |
| 1778023153 | 8.89° C | 82% | 1012.8 hPa | 0 mm | 0 m/s | 0 W/m² | - |
| 1778022851 | 8.89° C | 82% | 1013.1 hPa | 0 mm | 0.45 m/s, 336° | 0 W/m² | - |
| 1778022549 | 9.44° C | 82% | 1013.1 hPa | 0 mm | 1.34 m/s, 15° | 0 W/m² | - |
| 1778022246 | 9.44° C | 82% | 1013.2 hPa | 0 mm | 0.45 m/s, 270° | 0 W/m² | - |
| 1778021942 | 9.44° C | 82% | 1013.2 hPa | 0 mm | 0.45 m/s, 277° | 0 W/m² | - |
| 1778021640 | 9.44° C | 82% | 1013.4 hPa | 0 mm | 0 m/s | 0 W/m² | - |
| 1778021334 | 9.44° C | 82% | 1013.3 hPa | 0 mm | 0.45 m/s, 224° | 0 W/m² | - |
| 1778021033 | 9.44° C | 82% | 1013.3 hPa | 0 mm | 0.89 m/s, 275° | 0 W/m² | - |
| 1778020729 | 9.44° C | 82% | 1013.3 hPa | 0 mm | 1.34 m/s, 55° | 0 W/m² | - |
| 1778020426 | 9.44° C | 82% | 1013.3 hPa | 0 mm | 0.89 m/s, 80° | 0 W/m² | - |
| 1778020122 | 9.44° C | 83% | 1013.4 hPa | 0 mm | 0.89 m/s, 48° | 0 W/m² | - |
| 1778019818 | 8.89° C | 83% | 1013.3 hPa | 0 mm | 0.45 m/s, 290° | 0 W/m² | - |
| 1778019516 | 8.89° C | 83% | 1013.5 hPa | 0 mm | 0.45 m/s, 1° | 0 W/m² | - |
| 1778019212 | 8.89° C | 83% | 1013.6 hPa | 0 mm | 1.34 m/s, 126° | 0 W/m² | - |
| 1778018909 | 8.89° C | 83% | 1013.3 hPa | 0 mm | 1.34 m/s, 353° | 0 W/m² | - |
| 1778018606 | 8.89° C | 83% | 1013.4 hPa | 0 mm | 0.89 m/s, 12° | 0 W/m² | - |
| 1778018304 | 8.89° C | 83% | 1013.4 hPa | 0 mm | 0.45 m/s, 222° | 0 W/m² | - |
* Rain latest hour (hover to see other rain measurements)
** Current wind speed in m/s (hover to see current wind gust speed)